Dewpoint
61 61 61 61 61 60 60 60 59 59 59 58 58 58 58 58 58 58 57 57 57 57 57 57 56 56 55 50 48 49 51 50 46 44 43 41 41 39 38 38 37 34 33 32 32 31 28
61 61 61 61 61 61 60 60 60 59 59 59 58 58 58 58 58 58 57 57 57 57 57 57 57 57 53 47 52 51 50 49 46 45 43 43 42 42 40 39 39 38 37 35 33 32 32
62 61 61 61 60 60 60 60 60 59 59 59 59 58 58 58 58 58 58 57 57 57 57 57 57 56 52 49 52 52 51 50 49 48 46 46 45 44 42 40 40 37 36 35 34 33 33
61 61 60 60 60 60 60 60 59 59 59 59 59 58 58 58 58 58 57 57 57 57 57 57 57 56 49 53 53 52 52 51 51 50 49 47 47 46 44 43 42 38 36 32 32 32 32
60 60 60 60 60 60 59 59 59 59 59 59 58 58 58 58 57 57 57 57 57 57 57 57 55 53 48 54 52 52 51 49 48 48 48 48 48 46 45 43 40 37 33 30 29 30 30
59 58 57 57 56 56 56 56 56 56 57 57 57 57 57 57 57 57 57 56 57 56 56 57 56 50 51 48 48 48 49 48 47 46 46 47 45 45 44 39 34 32 30 29 28 28 27
54 54 54 54 54 54 54 54 53 53 54 54 54 54 55 55 56 56 56 55 51 52 53 47 47 47 43 48 47 44 46 47 47 44 43 45 41 39 38 38 35 33 30 27 26 26 27
49 50 51 50 50 51 52 52 52 52 52 53 54 54 54 54 55 56 56 52 46 47 46 50 48 45 46 46 42 43 45 44 44 40 41 39 39 38 36 35 34 34 32 31 30 28 29
48 47 48 49 49 49 49 50 51 51 51 52 51 53 53 53 53 54 53 52 51 52 46 42 42 43 45 44 43 43 42 42 41 39 37 36 35 36 36 35 33 33 32 32 31 31 31
48 47 47 47 48 48 48 49 50 50 50 51 51 51 52 51 49 50 51 53 53 54 39 37 37 37 39 40 41 43 42 41 39 39 36 37 36 34 32 32 33 33 33 32 32 31 29
45 46 47 47 47 48 48 48 48 48 48 50 50 51 50 51 48 48 49 51 54 51 26 35 34 37 39 41 38 39 44 41 39 39 39 37 35 35 34 34 34 33 34 33 32 32 31
45 45 44 46 47 46 46 47 47 47 47 47 49 48 50 49 49 49 49 49 51 35 26 33 34 38 39 40 41 40 43 43 43 40 40 40 38 35 35 36 36 36 35 35 36 35 31
40 42 44 45 45 46 46 46 46 46 46 47 46 46 45 50 44 50 48 42 33 28 35 30 29 33 37 39 41 39 41 42 40 38 38 40 41 41 39 37 37 35 34 32 31 31 30
42 41 38 37 38 42 44 44 45 46 46 46 46 46 45 44 45 49 44 33 24 33 32 28 32 31 31 36 38 40 40 39 39 38 32 36 34 39 40 39 35 34 33 31 24 25 26
37 38 39 41 42 40 39 42 44 44 45 46 45 41 43 42 44 47 37 25 26 33 36 34 33 35 33 36 34 37 38 35 35 37 35 32 31 31 29 36 35 35 31 33 30 29 26
37 38 38 38 38 38 41 41 40 43 44 45 41 38 36 39 46 42 31 27 31 30 35 34 29 32 29 31 31 32 31 35 35 36 38 33 31 32 28 29 29 33 33 31 32 28 27
37 38 38 39 39 39 38 38 41 40 42 43 40 34 33 42 44 37 27 29 30 30 33 33 31 30 29 30 29 30 31 32 34 34 35 33 32 33 35 34 31 37 35 31 36 35 30
40 40 40 41 41 41 40 39 38 42 40 41 35 28 37 43 33 33 29 32 32 29 31 33 34 33 30 29 28 28 30 34 36 32 30 33 30 26 25 27 35 37 35 34 25 26 32
36 36 37 40 40 40 41 41 40 39 41 31 31 29 30 38 25 26 29 27 29 31 32 33 32 33 33 31 28 28 30 33 32 29 31 29 28 19 19 20 33 30 30 31 29 30 26
38 38 38 37 37 39 39 41 41 41 40 38 33 25 29 34 27 24 20 23 26 29 28 24 31 31 31 28 28 28 24 24 30 26 24 28 27 24 21 20 17 18 21 23 26 25 26
40 39 39 39 39 38 39 40 41 41 40 37 32 26 22 24 27 25 23 21 18 18 30 27 27 28 26 27 23 25 24 22 23 18 23 27 25 23 21 21 19 19 17 15 14 20 22
40 40 41 41 40 40 39 40 41 40 40 37 29 25 23 24 21 20 30 25 23 22 27 26 25 24 25 27 24 22 22 21 20 18 20 23 23 17 15 14 12 13 14 17 15 14 16
40 41 41 41 41 40 40 40 40 40 39 35 36 31 30 23 21 20 18 20 25 23 31 30 29 29 28 30 29 29 30 23 22 23 22 20 18 14 9 6 5 10 12 14 11 10 13
39 39 40 40 40 40 40 40 40 40 40 35 36 34 30 20 19 18 17 18 23 26 28 25 27 25 24 27 25 22 21 20 20 20 20 24 22 18 14 10 8 7 5 5 6 8 17
38 38 38 39 38 39 39 40 40 40 40 39 36 36 31 22 18 16 18 30 25 26 23 21 22 22 24 21 21 18 17 16 14 12 11 15 22 19 13 8 6 3 2 14 18 13 17
38 38 38 39 39 39 39 39 40 40 40 40 38 38 34 27 20 20 26 28 22 19 20 26 24 25 24 21 20 14 4 -0 -2 3 22 25 28 21 16 9 4 18 26 29 30 21 18
38 38 38 39 38 38 40 40 39 41 40 39 37 39 36 29 23 30 25 27 26 21 19 20 22 26 27 24 19 14 8 11 10 16 18 15 20 21 20 16 19 24 30 33 22 24 30
38 39 39 38 38 39 39 39 40 38 36 37 38 39 34 28 25 29 28 25 24 22 19 24 21 23 26 21 17 20 19 22 10 12 14 16 15 18 17 16 13 25 25 22 27 31 31
39 39 39 38 38 39 39 39 38 38 39 39 33 40 37 34 32 32 29 29 27 24 26 25 21 21 22 21 22 19 14 11 8 3 6 7 12 10 15 13 21 31 30 30 32 31 32
Wind_Speed
24 24 24 24 23 24 23 22 23 24 23 24 23 22 22 21 21 20 19 20 20 17 15 14 12 10 11 13 25 23 9 14 18 23 27 25 23 23 24 20 22 28 30 32 30 31 32
26 25 25 24 24 24 23 24 24 24 24 24 24 23 23 22 21 21 20 21 21 18 16 15 13 10 7 24 20 28 24 25 24 20 20 18 18 20 26 27 27 27 32 37 31 30 32
26 25 24 25 25 25 25 25 24 24 25 24 24 24 24 22 21 21 21 21 20 19 18 16 15 14 15 25 18 29 31 33 32 31 34 30 27 28 22 25 35 22 28 31 36 35 37
25 24 24 24 25 25 25 25 25 25 25 24 23 23 22 22 21 21 20 20 19 18 17 16 17 12 18 7 30 40 36 35 31 32 37 31 27 32 35 31 35 33 29 31 28 34 36
25 25 25 24 23 24 24 24 24 22 22 22 21 21 21 21 20 20 19 18 18 17 16 11 7 8 14 8 21 25 24 28 23 19 21 22 19 31 26 31 34 24 36 37 31 28 24
10 7 7 5 3 1 2 5 7 8 11 13 14 15 16 17 18 18 15 12 10 10 10 8 6 7 6 22 24 19 12 16 18 17 10 18 14 20 30 28 35 37 39 35 31 24 24
11 9 10 7 6 4 4 3 4 5 5 8 8 9 11 15 16 14 5 4 7 9 12 19 18 17 16 21 8 9 13 11 19 17 23 24 24 33 32 37 37 36 37 38 33 24 19
18 18 16 15 12 12 9 5 4 4 6 8 8 8 9 9 12 13 9 7 17 14 18 30 34 39 36 29 38 29 17 15 24 32 28 26 42 33 32 34 35 37 39 47 35 31 27
12 13 14 12 11 12 13 13 11 7 6 6 10 9 8 7 5 5 11 16 12 11 12 33 38 39 38 33 45 43 32 32 34 36 35 36 48 31 37 38 39 36 41 39 38 29 31
8 9 8 9 10 7 8 10 11 13 12 6 7 10 8 3 3 12 12 15 17 5 10 23 21 27 33 34 40 30 40 45 44 48 37 35 45 40 42 43 35 30 42 38 37 36 36
12 12 7 5 5 7 5 5 9 10 13 10 6 6 7 8 7 4 7 17 11 6 11 11 13 12 7 27 8 10 27 31 52 51 24 51 39 30 35 46 36 46 38 36 32 32 29
8 10 10 10 9 8 7 6 5 4 8 13 10 9 8 4 2 1 10 11 3 10 13 11 8 12 18 27 32 3 7 17 24 40 36 45 31 32 30 31 28 22 35 32 29 25 24
12 11 11 10 10 10 11 12 10 6 5 6 7 5 6 4 2 3 5 5 9 14 4 15 24 17 22 22 24 30 18 22 18 17 31 40 40 45 36 33 28 20 22 12 13 18 26
12 14 14 15 14 10 8 11 10 9 8 8 8 9 5 3 8 5 4 1 15 6 25 6 9 18 29 26 24 28 26 28 31 30 24 29 30 47 34 40 31 24 34 20 31 35 34
14 15 15 13 12 12 11 9 9 10 10 8 9 8 6 10 8 3 5 11 7 5 8 9 15 9 11 16 13 14 34 39 34 34 36 26 40 36 30 42 37 40 38 42 40 35 32
15 15 15 15 15 13 11 10 10 9 7 6 7 7 9 7 13 8 7 13 10 12 2 3 6 4 4 8 9 13 7 16 10 19 10 13 7 27 26 25 31 40 32 32 28 31 35
16 16 16 16 15 14 14 13 11 10 7 5 7 5 5 6 11 6 10 7 11 17 15 5 10 7 11 10 11 10 5 14 6 7 11 13 4 8 11 11 21 19 40 37 17 21 24
19 21 20 19 18 17 17 14 13 11 6 7 5 7 6 9 12 5 9 4 5 15 14 16 10 11 13 15 13 12 8 3 2 11 11 6 7 7 17 33 7 5 7 9 8 13 15
22 22 21 19 19 17 16 17 15 13 11 7 5 10 8 6 9 17 11 16 13 13 13 6 8 10 6 7 8 14 10 6 6 3 2 7 2 10 17 14 5 5 8 11 18 7 11
24 24 24 23 22 20 19 18 19 18 16 12 2 5 8 8 17 19 20 21 18 15 23 26 13 14 12 15 17 10 14 6 9 7 6 9 7 11 11 19 25 28 22 18 12 10 15
25 26 26 26 25 23 22 22 20 19 19 13 9 11 12 8 14 20 21 19 20 23 14 14 16 21 19 11 18 19 19 15 12 8 11 9 7 13 19 24 27 29 33 30 28 26 25
28 28 28 28 27 27 26 25 23 23 19 17 8 9 14 19 23 20 16 12 20 24 14 21 28 23 25 16 14 3 12 12 9 10 13 12 8 15 21 20 26 32 31 30 33 31 31
29 30 30 30 29 29 29 27 26 25 21 9 8 12 10 14 22 23 23 21 14 16 4 10 7 6 7 11 12 9 16 15 14 14 13 16 17 17 26 23 27 26 22 32 35 32 29
24 26 28 28 30 30 29 28 28 28 26 19 6 7 9 20 22 23 23 21 17 11 9 6 8 10 2 1 9 14 19 23 25 27 24 22 22 20 28 27 32 30 31 41 36 33 19
22 23 22 22 24 25 26 27 29 29 30 21 16 10 10 19 22 25 27 12 4 9 12 12 12 13 8 7 9 10 12 17 25 30 32 34 30 23 26 30 32 34 29 24 26 28 27
21 24 17 17 17 19 21 23 25 27 29 21 21 17 9 10 22 19 11 16 12 14 11 8 12 10 11 11 12 13 20 23 20 13 11 8 12 29 22 25 23 12 23 20 20 29 22
18 18 17 12 9 10 14 16 16 23 23 21 10 23 6 8 15 2 7 7 7 9 10 6 6 5 6 9 15 20 23 13 8 5 7 12 7 16 26 24 8 20 27 7 8 10 37
17 14 12 9 8 2 11 14 16 13 16 12 5 21 13 9 12 7 10 11 8 8 10 3 5 8 7 7 7 4 4 1 5 7 2 3 8 7 7 5 3 17 11 10 14 22 27
13 10 14 7 7 4 7 11 9 9 22 11 3 10 8 3 4 6 10 13 9 6 5 3 4 1 1 4 3 5 4 4 6 6 3 3 3 8 3 6 12 4 4 10 16 23 18
Wind_Direction
243 244 246 246 249 250 250 252 253 254 258 259 258 258 259 260 262 264 265 271 270 269 270 271 271 273 294 260 251 272 170 251 258 269 267 262 257 255 258 265 272 264 268 267 267 269 267
240 242 243 247 248 250 250 249 249 252 254 255 258 259 259 260 262 264 268 266 264 265 262 259 258 247 222 248 271 281 283 276 265 262 252 244 256 257 260 267 263 270 278 279 268 262 264
239 240 245 247 248 249 250 248 248 250 252 252 254 255 256 258 260 264 265 263 269 269 257 253 251 239 235 239 260 271 267 266 271 271 263 252 268 268 257 263 250 272 270 267 258 260 260
237 244 246 247 249 249 249 251 250 249 249 250 251 252 254 258 258 260 265 269 271 268 264 254 243 249 260 207 247 259 261 263 261 259 259 261 262 261 253 253 268 273 270 268 261 248 250
238 240 242 244 246 250 248 247 249 250 251 252 252 252 252 254 255 260 265 271 272 274 258 251 241 219 272 200 245 254 252 253 253 246 242 246 242 243 237 239 252 245 253 251 256 238 247
238 221 163 153 151 174 276 271 268 265 259 256 256 255 256 253 255 258 262 269 277 275 249 232 220 232 246 242 240 240 248 237 227 243 239 210 221 225 220 223 234 238 243 245 251 253 249
40 39 31 41 46 61 56 34 26 9 317 285 274 272 273 269 259 247 243 255 252 234 200 207 205 223 252 220 227 242 229 235 211 216 217 205 218 224 227 224 244 258 265 267 266 261 243
44 30 33 19 17 16 7 9 20 360 346 338 298 281 271 274 275 246 206 202 247 322 280 228 247 255 247 261 270 256 247 218 210 226 221 237 234 237 243 241 247 247 258 260 267 264 273
25 41 23 19 11 20 6 355 351 352 337 350 354 320 278 268 265 231 221 218 265 299 261 270 254 249 249 243 253 252 237 232 232 234 232 233 246 234 235 246 249 246 251 260 262 268 267
6 14 16 3 349 4 9 356 5 10 356 336 342 356 318 208 232 233 227 250 249 104 257 270 254 253 238 233 254 256 241 234 236 240 242 243 258 255 259 255 243 259 250 256 257 260 258
335 330 319 308 312 327 339 358 350 14 11 335 299 324 354 204 342 311 347 337 143 148 249 278 247 231 205 183 234 206 223 226 235 233 224 241 244 248 252 254 261 258 263 252 263 275 272
308 293 286 283 280 273 270 272 291 336 9 36 41 26 317 257 241 13 2 350 271 214 232 235 220 202 198 205 222 227 203 208 238 242 237 246 254 257 255 266 263 282 266 258 264 265 254
291 294 303 309 304 288 285 278 279 280 297 318 329 346 336 293 206 56 28 5 234 231 163 242 246 217 222 215 224 232 208 206 202 201 226 240 244 250 258 266 264 252 260 251 230 230 235
305 284 275 274 281 289 299 293 288 268 267 276 285 296 241 223 289 124 99 14 232 239 239 247 354 280 238 224 226 218 230 232 221 230 235 221 243 237 231 236 240 224 230 221 239 238 244
295 295 297 303 280 277 280 294 304 297 289 274 282 276 265 250 188 207 139 215 233 249 341 347 276 276 251 257 317 244 229 231 235 228 239 239 237 247 230 220 230 242 245 234 250 259 267
295 288 283 286 284 285 293 276 278 289 294 276 286 286 264 245 171 192 212 235 240 244 214 26 333 10 324 352 346 353 311 24 328 15 353 354 296 269 263 264 239 223 238 237 234 239 243
282 279 279 276 272 274 272 269 280 267 278 274 263 269 233 206 167 202 232 230 243 244 235 227 265 269 280 306 301 314 303 322 17 334 41 5 0 284 307 267 254 263 258 235 233 235 236
286 279 272 271 270 265 260 261 255 257 244 217 256 245 145 160 206 213 235 207 287 257 232 226 241 236 248 269 279 270 270 240 333 346 352 61 340 319 304 299 285 237 325 349 28 333 315
286 283 284 283 271 267 263 250 245 239 219 238 238 246 222 219 239 236 246 261 256 248 237 206 219 224 241 234 237 242 241 215 215 295 56 351 20 328 308 272 48 25 334 337 316 270 296
279 278 276 273 269 265 262 256 237 230 220 233 237 244 220 218 244 253 259 261 258 248 261 257 238 230 228 239 233 251 260 253 198 204 193 189 200 235 260 282 297 294 289 278 281 289 322
280 275 269 264 260 257 252 250 241 231 218 205 210 233 238 225 231 239 246 255 267 263 242 252 243 235 232 241 248 237 243 236 223 232 203 214 231 231 248 268 287 291 288 291 288 276 272
282 277 270 264 258 251 246 242 234 234 218 209 211 221 237 255 257 251 235 245 252 264 268 258 238 238 229 214 210 234 256 259 274 263 230 229 260 269 268 277 273 271 274 280 274 281 285
287 279 270 262 255 250 244 237 231 227 203 216 224 251 245 251 244 249 252 249 253 260 273 247 297 317 305 297 265 252 266 269 252 256 270 275 267 269 274 278 283 276 268 265 275 271 269
306 296 277 264 254 246 241 234 226 218 211 220 191 226 210 244 247 255 255 256 244 242 254 255 227 253 249 226 302 279 267 262 259 257 249 242 245 259 268 279 269 270 263 256 260 266 274
324 309 297 275 262 247 239 233 226 216 213 215 214 206 213 244 251 256 253 245 221 247 236 253 253 252 248 278 286 271 261 248 250 248 247 235 234 246 253 262 272 278 272 304 296 262 246
331 346 325 308 264 246 237 233 224 214 209 215 223 213 237 243 245 278 266 225 224 247 256 251 262 260 246 242 246 244 254 265 274 285 70 310 287 221 230 251 265 342 336 326 323 269 272
334 332 344 343 310 253 236 230 212 201 205 216 217 205 165 230 247 175 262 264 225 229 247 243 208 223 214 222 237 246 258 270 253 270 308 326 335 264 225 240 266 352 335 297 263 318 316
336 344 353 0 5 108 184 195 182 192 198 200 202 188 185 226 245 224 247 257 257 243 248 179 216 214 198 235 256 257 272 331 270 289 329 304 318 3 330 284 314 359 2 11 322 316 320
1 10 17 35 23 7 182 171 195 189 167 122 109 186 193 253 295 301 263 263 292 324 312 234 300 186 330 274 258 288 274 268 295 313 198 317 353 322 265 296 284 231 264 308 335 324 311